TimeEDT,TemperatureF,Dew PointF,Humidity,Sea Level PressureIn,VisibilityMPH,Wind Direction,Wind SpeedMPH,Gust SpeedMPH,PrecipitationIn,Events,Conditions,WindDirDegrees,DateUTC
12:56 AM,32.0,28.9,88,30.01,3.0,East,12.7,26.5,0.00,Rain-Snow,Ice Pellets,90,2013-03-19 04:56:00
1:56 AM,32.0,30.0,92,29.94,3.0,East,16.1,26.5,0.00,Rain,Light Rain,100,2013-03-19 05:56:00
2:56 AM,33.1,30.0,89,29.92,3.0,East,18.4,27.6,0.00,Rain,Light Rain,90,2013-03-19 06:56:00
3:56 AM,33.1,30.0,89,29.88,3.0,East,17.3,25.3,0.01,Rain,Light Rain,80,2013-03-19 07:56:00
4:56 AM,33.1,30.9,92,29.84,6.0,East,13.8,23.0,0.00,Rain,Light Rain,80,2013-03-19 08:56:00
5:56 AM,33.1,30.0,89,29.83,10.0,East,15.0,24.2,0.00,Rain,Light Rain,80,2013-03-19 09:56:00
6:56 AM,33.1,30.9,92,29.79,6.0,East,12.7,25.3,0.00,,Overcast,80,2013-03-19 10:56:00
7:56 AM,34.0,30.9,89,29.81,5.0,ENE,12.7,19.6,N/A,,Overcast,60,2013-03-19 11:56:00
8:33 AM,33.8,30.2,87,29.75,2.5,ENE,13.8,21.9,N/A,,Overcast,70,2013-03-19 12:33:00
8:56 AM,34.0,30.9,89,29.77,2.5,ENE,12.7,18.4,N/A,,Overcast,70,2013-03-19 12:56:00
9:56 AM,34.0,32.0,92,29.75,2.5,ENE,10.4,-,0.00,,Light Drizzle,70,2013-03-19 13:56:00
10:56 AM,34.0,32.0,92,29.75,2.0,NNE,8.1,-,0.00,,Light Drizzle,20,2013-03-19 14:56:00
11:56 AM,34.0,30.9,89,29.78,2.0,NW,9.2,-,0.03,Rain,Rain,310,2013-03-19 15:56:00
12:56 PM,34.0,30.9,89,29.76,6.0,NW,11.5,-,0.01,Rain,Rain,310,2013-03-19 16:56:00
1:56 PM,36.0,30.9,82,29.71,10.0,NNW,15.0,-,0.00,Rain,Rain,340,2013-03-19 17:56:00
2:56 PM,37.0,30.9,79,29.69,10.0,NNW,9.2,-,0.00,,Overcast,330,2013-03-19 18:56:00
3:43 PM,35.6,32.0,87,29.69,2.5,WNW,13.8,-,N/A,,Overcast,290,2013-03-19 19:43:00
3:56 PM,35.1,32.0,89,29.71,2.5,WNW,15.0,-,N/A,,Overcast,300,2013-03-19 19:56:00
4:03 PM,35.6,32.0,87,29.69,2.5,NW,12.7,-,N/A,,Overcast,310,2013-03-19 20:03:00
4:31 PM,35.6,32.0,87,29.68,7.0,NW,10.4,-,N/A,,Mostly Cloudy,320,2013-03-19 20:31:00
4:56 PM,37.9,32.0,79,29.70,10.0,WNW,6.9,-,N/A,,Partly Cloudy,300,2013-03-19 20:56:00
5:56 PM,39.0,30.9,73,29.71,10.0,WNW,9.2,-,N/A,,Scattered Clouds,300,2013-03-19 21:56:00
6:56 PM,37.0,30.9,79,29.73,10.0,Calm,Calm,-,N/A,,Partly Cloudy,0,2013-03-19 22:56:00
7:56 PM,34.0,30.0,85,29.74,10.0,Calm,Calm,-,N/A,,Partly Cloudy,0,2013-03-19 23:56:00
8:56 PM,34.0,30.0,85,29.75,10.0,NNW,9.2,-,N/A,,Partly Cloudy,330,2013-03-20 00:56:00
9:15 PM,37.4,30.2,75,29.75,9.0,NW,17.3,24.2,N/A,,Overcast,310,2013-03-20 01:15:00
9:37 PM,35.6,30.2,81,29.75,10.0,WNW,11.5,-,0.01,,Scattered Clouds,300,2013-03-20 01:37:00
9:56 PM,36.0,30.0,79,29.77,10.0,WNW,12.7,-,0.01,,Scattered Clouds,300,2013-03-20 01:56:00
10:56 PM,36.0,28.0,73,29.77,10.0,NW,18.4,25.3,N/A,,Scattered Clouds,310,2013-03-20 02:56:00
11:56 PM,35.1,24.1,64,29.79,10.0,NW,17.3,26.5,N/A,,Clear,310,2013-03-20 03:56:00